Regional Weather Roundup
Issued by NWS Charleston, WV

Home | Current Version | Previous Version | Graphics & Text | Print | Product List | Glossary On
Versions: 1 2 3 4 5 6 7 8 9 10 11 12 13 14 15 16 17 18 19 20 21 22 23 24 25 26 27 28 29 30 31 32 33 34 35 36 37 38 39 40 41 42 43 44 45 46 47 48 49 50
407
ASUS41 KRLX 091310
RWRRLX
CRWRWRRLX ALL
West Virginia Regional Weather Roundup
National Weather Service Charleston WV
Issued by National Weather Service Pittsburgh PA
800 AM EST FRI DEC 09 2016

Note: "fair" indicates few or no clouds below 12,000 feet with no
significant weather and/or obstructions to visibility.

WVZ003-091400-
Northern Panhandle of West Virginia

CITY           SKY/WX    TMP DP  RH WIND       PRES   REMARKS
WHEELING       CLOUDY    21  15  78 W14       30.35R WCI   8
$$

WVZ009-091400-
Northwest West Virginia

CITY           SKY/WX    TMP DP  RH WIND       PRES   REMARKS
PARKERSBURG    CLOUDY    23  14  68 W7        30.47R WCI  15
$$

WVZ006-091400-
Western West Virginia

CITY           SKY/WX    TMP DP  RH WIND       PRES   REMARKS
HUNTINGTON     CLOUDY    24  16  71 W5        30.49R WCI  18
$$

WVZ015-091400-
West Central West Virginia

CITY           SKY/WX    TMP DP  RH WIND       PRES   REMARKS
CHARLESTON     FLURRIES  24  15  68 W9        30.46R WCI  14
$$

WVZ031-091400-
North Central West Virginia

CITY           SKY/WX    TMP DP  RH WIND       PRES   REMARKS
CLARKSBURG     FLURRIES  22  16  78 W9        30.38R WCI  12
MORGANTOWN     FLURRIES  23  15  71 VRB5      30.36R WCI  17
$$

WVZ035-042-091400-
South Central West Virginia

CITY           SKY/WX    TMP DP  RH WIND       PRES   REMARKS
BECKLEY        CLOUDY    17   9  70 NW9       30.33S WCI   6
BLUEFIELD      FLURRIES  16  10  77 NW14G21   30.30R WCI   2
$$

WVZ045-091400-
Greenbrier Valley of West Virginia

CITY           SKY/WX    TMP DP  RH WIND       PRES   REMARKS
LEWISBURG      FLURRIES  18  10  70 NW8       30.31R WCI   8
$$

WVZ047-091400-
Northern Mountains of West Virginia

CITY           SKY/WX    TMP DP  RH WIND       PRES   REMARKS
ELKINS         FLURRIES  20  12  71 CALM      30.33R
$$

WVZ052-091400-
Eastern Panhandle of West Virginia

CITY           SKY/WX    TMP DP  RH WIND       PRES   REMARKS
MARTINSBURG    PTCLDY    28  14  55 W15G21    30.29R WCI  16
PETERSBURG     PTCLDY    28  14  57 W3        30.33R
$$




USA.gov is the U.S. government's official web portal to all federal, state and local government web resources and services.